Location: Hertford
(51.8000°N, 0.0667°W)
Time: 14:44:15
(UTC+00:00)

Okean 1 Rocket - Pass Details

Date: 18 September 2020
Orbit: 605 x 635 km, 82.5° (Epoch: 27 October)

Event Time Altitude Azimuth Distance (km) Brightness Sun altitude
Exits shadow 19:51:19 30° 126° (SE) 1,149 3.9 -16.4°
Maximum altitude 19:52:36 36° 91° (E) 1,011 3.7 -16.6°
Drops below altitude 10° 19:56:44 10° 25° (NNE) 2,036 5.7 -17.2°
Sets 19:59:06 0° 17° (NNE) 2,949 6.7 -17.5°
